QPF
0.00 0.00 0.00 0.00 0.00 0.00 0.00 0.00 0.00 0.00 0.00 0.00 0.00 0.00 0.00 0.00 0.00 0.00 0.00 0.00 0.00 0.00 0.00 0.00 0.00 0.00 0.00 0.00 0.00 0.00 0.00 0.00 0.00 0.00 0.00 0.00 0.00 0.00 0.00 0.00 0.00 0.00 0.00
0.00 0.00 0.00 0.00 0.00 0.00 0.00 0.00 0.00 0.00 0.00 0.00 0.00 0.00 0.00 0.00 0.00 0.00 0.00 0.00 0.00 0.00 0.00 0.00 0.00 0.00 0.00 0.00 0.00 0.00 0.00 0.00 0.00 0.00 0.00 0.00 0.00 0.00 0.00 0.00 0.00 0.00 0.00
0.00 0.00 0.00 0.00 0.00 0.00 0.00 0.00 0.00 0.00 0.00 0.00 0.00 0.00 0.00 0.00 0.00 0.00 0.00 0.00 0.00 0.00 0.00 0.00 0.00 0.00 0.00 0.00 0.01 0.00 0.00 0.00 0.01 0.01 0.04 0.03 0.00 0.00 0.00 0.00 0.00 0.00 0.00
0.00 0.00 0.00 0.00 0.00 0.00 0.00 0.00 0.00 0.00 0.00 0.00 0.00 0.00 0.00 0.00 0.00 0.00 0.00 0.00 0.00 0.00 0.00 0.00 0.00 0.00 0.00 0.00 0.01 0.00 0.00 0.00 0.02 0.01 0.07 0.10 0.06 0.00 0.00 0.00 0.00 0.00 0.00
0.00 0.00 0.00 0.00 0.00 0.00 0.00 0.00 0.00 0.00 0.00 0.00 0.00 0.00 0.00 0.00 0.00 0.00 0.00 0.00 0.00 0.00 0.00 0.00 0.00 0.00 0.00 0.00 0.00 0.00 0.01 0.01 0.01 0.06 0.02 0.05 0.03 0.03 0.00 0.00 0.00 0.00 0.00
0.00 0.00 0.00 0.00 0.00 0.00 0.00 0.00 0.00 0.00 0.00 0.00 0.00 0.00 0.00 0.00 0.00 0.00 0.00 0.00 0.00 0.00 0.00 0.00 0.00 0.00 0.00 0.00 0.00 0.00 0.00 0.00 0.00 0.00 0.01 0.02 0.04 0.01 0.00 0.00 0.00 0.00 0.00
0.00 0.00 0.00 0.00 0.00 0.00 0.00 0.00 0.00 0.00 0.00 0.00 0.00 0.00 0.00 0.00 0.00 0.00 0.00 0.00 0.00 0.00 0.00 0.00 0.00 0.00 0.00 0.00 0.00 0.01 0.00 0.00 0.00 0.01 0.03 0.00 0.01 0.00 0.00 0.00 0.00 0.00 0.00
0.00 0.00 0.00 0.00 0.00 0.00 0.00 0.00 0.00 0.00 0.00 0.00 0.00 0.00 0.00 0.00 0.00 0.00 0.00 0.00 0.00 0.00 0.00 0.00 0.00 0.00 0.00 0.00 0.00 0.00 0.00 0.00 0.01 0.04 0.00 0.00 0.00 0.00 0.00 0.00 0.00 0.00 0.00
0.00 0.00 0.00 0.00 0.00 0.00 0.00 0.00 0.00 0.00 0.00 0.00 0.00 0.00 0.00 0.00 0.00 0.00 0.00 0.00 0.00 0.00 0.00 0.00 0.00 0.00 0.00 0.00 0.00 0.00 0.02 0.01 0.00 0.00 0.00 0.01 0.00 0.00 0.00 0.00 0.00 0.01 0.00
0.00 0.00 0.00 0.00 0.00 0.00 0.00 0.00 0.00 0.00 0.00 0.00 0.00 0.00 0.00 0.00 0.00 0.00 0.00 0.00 0.00 0.00 0.00 0.00 0.00 0.00 0.00 0.00 0.02 0.02 0.04 0.01 0.00 0.00 0.00 0.00 0.00 0.00 0.00 0.00 0.00 0.00 0.00
0.00 0.00 0.00 0.00 0.00 0.00 0.00 0.00 0.00 0.00 0.00 0.00 0.00 0.00 0.00 0.00 0.00 0.00 0.00 0.00 0.00 0.00 0.00 0.00 0.00 0.00 0.00 0.01 0.05 0.06 0.07 0.03 0.00 0.01 0.00 0.00 0.00 0.00 0.00 0.00 0.00 0.00 0.00
0.00 0.00 0.00 0.00 0.00 0.00 0.00 0.00 0.00 0.00 0.00 0.00 0.00 0.00 0.00 0.00 0.00 0.00 0.00 0.00 0.00 0.00 0.00 0.00 0.00 0.00 0.00 0.01 0.09 0.08 0.07 0.03 0.03 0.00 0.00 0.00 0.00 0.00 0.00 0.00 0.00 0.01 0.01
0.00 0.00 0.00 0.00 0.00 0.00 0.00 0.00 0.00 0.00 0.00 0.00 0.00 0.00 0.00 0.00 0.00 0.00 0.00 0.00 0.00 0.00 0.00 0.00 0.00 0.02 0.02 0.03 0.06 0.06 0.10 0.09 0.02 0.00 0.00 0.00 0.00 0.00 0.00 0.00 0.00 0.00 0.00
0.00 0.00 0.00 0.00 0.00 0.00 0.00 0.00 0.00 0.00 0.00 0.00 0.00 0.00 0.00 0.00 0.00 0.00 0.00 0.00 0.00 0.00 0.00 0.00 0.00 0.00 0.00 0.01 0.05 0.10 0.10 0.02 0.00 0.00 0.00 0.00 0.00 0.00 0.00 0.00 0.00 0.00 0.00
0.00 0.00 0.00 0.00 0.00 0.00 0.00 0.00 0.00 0.00 0.00 0.00 0.00 0.00 0.00 0.00 0.00 0.00 0.00 0.00 0.00 0.00 0.00 0.00 0.00 0.00 0.01 0.03 0.09 0.09 0.01 0.00 0.00 0.00 0.00 0.00 0.00 0.00 0.00 0.00 0.00 0.00 0.00
0.00 0.00 0.00 0.00 0.00 0.00 0.00 0.00 0.00 0.00 0.00 0.00 0.00 0.00 0.00 0.00 0.00 0.00 0.00 0.00 0.00 0.00 0.00 0.00 0.00 0.01 0.02 0.07 0.08 0.02 0.00 0.00 0.00 0.00 0.00 0.00 0.00 0.00 0.00 0.00 0.00 0.00 0.00
0.00 0.00 0.00 0.00 0.00 0.00 0.00 0.00 0.00 0.00 0.00 0.00 0.00 0.00 0.00 0.00 0.00 0.00 0.00 0.00 0.00 0.00 0.00 0.00 0.00 0.01 0.03 0.02 0.01 0.00 0.00 0.00 0.00 0.00 0.00 0.00 0.00 0.00 0.00 0.00 0.00 0.00 0.00
0.00 0.00 0.00 0.00 0.00 0.00 0.00 0.00 0.00 0.00 0.00 0.00 0.00 0.00 0.00 0.00 0.00 0.00 0.00 0.00 0.00 0.00 0.00 0.00 0.00 0.00 0.00 0.00 0.00 0.00 0.00 0.00 0.00 0.00 0.00 0.00 0.00 0.00 0.00 0.00 0.00 0.00 0.00
0.00 0.00 0.00 0.00 0.00 0.00 0.00 0.00 0.00 0.00 0.00 0.00 0.00 0.00 0.00 0.00 0.00 0.00 0.00 0.00 0.00 0.01 0.00 0.00 0.00 0.00 0.00 0.00 0.00 0.00 0.00 0.00 0.00 0.00 0.00 0.00 0.00 0.00 0.00 0.00 0.00 0.00 0.00
0.00 0.00 0.00 0.00 0.00 0.00 0.00 0.00 0.00 0.00 0.00 0.00 0.00 0.00 0.00 0.00 0.00 0.00 0.00 0.05 0.14 0.06 0.02 0.01 0.00 0.00 0.00 0.00 0.00 0.00 0.00 0.00 0.00 0.00 0.00 0.00 0.00 0.00 0.00 0.00 0.00 0.00 0.00
0.00 0.00 0.00 0.00 0.00 0.00 0.00 0.00 0.00 0.00 0.00 0.00 0.00 0.00 0.00 0.00 0.00 0.02 0.07 0.26 0.27 0.19 0.09 0.04 0.01 0.00 0.00 0.00 0.00 0.00 0.00 0.00 0.00 0.00 0.00 0.00 0.00 0.00 0.00 0.00 0.00 0.00 0.00
0.00 0.00 0.00 0.00 0.00 0.00 0.00 0.00 0.00 0.00 0.00 0.00 0.00 0.00 0.00 0.02 0.05 0.16 0.25 0.23 0.18 0.16 0.05 0.01 0.00 0.00 0.00 0.00 0.00 0.00 0.00 0.00 0.00 0.00 0.00 0.00 0.00 0.00 0.00 0.00 0.00 0.00 0.00
0.00 0.00 0.00 0.00 0.00 0.00 0.00 0.00 0.00 0.00 0.00 0.00 0.00 0.00 0.00 0.10 0.17 0.16 0.11 0.09 0.09 0.02 0.00 0.00 0.00 0.00 0.00 0.00 0.00 0.00 0.00 0.00 0.00 0.00 0.00 0.00 0.00 0.00 0.00 0.00 0.00 0.00 0.00
0.00 0.00 0.00 0.00 0.00 0.00 0.00 0.00 0.00 0.00 0.00 0.00 0.00 0.00 0.00 0.02 0.03 0.03 0.03 0.02 0.01 0.00 0.00 0.00 0.00 0.00 0.00 0.00 0.00 0.00 0.00 0.00 0.00 0.00 0.00 0.00 0.00 0.00 0.00 0.00 0.00 0.00 0.00
0.00 0.00 0.00 0.00 0.00 0.00 0.00 0.00 0.00 0.00 0.00 0.00 0.00 0.01 0.02 0.03 0.02 0.01 0.00 0.00 0.00 0.00 0.00 0.00 0.00 0.00 0.00 0.00 0.00 0.00 0.00 0.00 0.00 0.00 0.00 0.00 0.00 0.00 0.00 0.00 0.00 0.00 0.00
0.00 0.00 0.00 0.00 0.00 0.00 0.00 0.00 0.00 0.00 0.00 0.00 0.00 0.02 0.00 0.00 0.00 0.00 0.00 0.00 0.00 0.00 0.00 0.00 0.00 0.00 0.00 0.00 0.00 0.00 0.00 0.00 0.00 0.00 0.00 0.00 0.00 0.00 0.00 0.00 0.00 0.00 0.00
MSLP
1009.03 1009.92 1010.52 1011.07 1011.64 1012.25 1012.76 1013.25 1013.83 1014.34 1015.01 1015.41 1015.61 1015.79 1015.74 1015.88 1016.05 1016.06 1016.23 1016.39 1016.42 1016.54 1016.78 1016.66 1016.83 1016.84 1016.89 1017.11 1017.30 1017.21 1017.25 1016.96 1017.08 1016.60 1015.79 1015.43 1015.11 1015.13 1015.15 1014.84 1015.02 1015.20 1015.43
1008.49 1009.08 1009.57 1010.16 1010.78 1011.28 1011.86 1012.56 1013.06 1013.72 1014.28 1014.73 1015.09 1015.30 1015.44 1015.47 1015.46 1015.52 1015.73 1015.83 1015.92 1016.07 1016.22 1016.27 1016.29 1016.38 1016.71 1017.04 1017.07 1017.25 1017.04 1016.96 1016.90 1016.49 1015.98 1015.18 1015.08 1015.06 1014.64 1014.70 1014.73 1014.73 1014.64
1007.42 1008.04 1008.81 1009.25 1009.89 1010.54 1011.17 1011.72 1012.33 1012.92 1013.55 1014.07 1014.75 1015.10 1015.34 1015.40 1015.38 1015.38 1015.35 1015.21 1015.53 1015.67 1015.85 1015.83 1015.89 1016.26 1016.61 1016.54 1016.80 1016.86 1017.07 1016.80 1016.65 1016.77 1016.58 1015.89 1015.45 1015.21 1014.59 1014.46 1014.42 1014.39 1014.17
1006.50 1007.10 1007.70 1008.40 1009.02 1009.47 1010.24 1010.84 1011.54 1012.22 1012.90 1013.58 1014.03 1014.35 1014.48 1014.64 1014.74 1014.81 1014.87 1014.97 1015.10 1015.20 1015.39 1015.47 1015.70 1015.99 1016.27 1016.32 1016.47 1016.70 1016.95 1016.95 1016.54 1016.45 1016.67 1016.64 1016.57 1016.05 1014.72 1014.46 1014.44 1014.35 1013.91
1005.07 1005.81 1006.55 1007.19 1007.73 1008.74 1009.44 1010.07 1010.99 1011.68 1012.27 1012.87 1013.24 1013.73 1014.08 1014.25 1014.52 1014.63 1014.76 1014.88 1014.91 1014.89 1014.89 1015.10 1015.32 1015.68 1015.84 1015.94 1016.20 1016.36 1016.55 1016.49 1016.36 1016.32 1016.07 1016.22 1016.30 1016.59 1016.31 1014.64 1014.12 1014.03 1013.57
1003.89 1004.75 1005.54 1006.34 1007.10 1007.97 1008.78 1009.48 1010.34 1010.93 1011.67 1012.27 1012.78 1013.24 1013.44 1013.80 1014.10 1014.21 1014.24 1014.34 1014.48 1014.59 1014.55 1014.69 1014.91 1014.98 1015.18 1015.42 1015.60 1015.82 1015.98 1015.99 1016.05 1016.01 1015.90 1015.87 1015.88 1015.69 1015.92 1015.41 1014.59 1014.26 1013.51
1002.85 1003.83 1004.71 1005.56 1006.33 1007.19 1007.98 1008.69 1009.57 1010.19 1010.85 1011.47 1012.00 1012.46 1012.82 1013.26 1013.46 1013.76 1013.93 1013.98 1014.12 1014.25 1014.28 1014.50 1014.65 1014.70 1014.79 1015.09 1015.24 1015.43 1015.48 1015.56 1015.34 1015.40 1015.46 1015.57 1015.54 1015.60 1015.60 1015.67 1015.03 1014.84 1013.76
1001.88 1002.77 1003.50 1004.48 1005.46 1006.31 1007.16 1007.89 1008.66 1009.37 1010.14 1010.75 1011.14 1011.68 1012.18 1012.60 1012.98 1013.31 1013.42 1013.63 1013.69 1013.83 1014.10 1014.21 1014.24 1014.30 1014.34 1014.57 1014.88 1015.08 1015.10 1015.12 1014.93 1014.98 1015.14 1015.19 1015.25 1015.41 1015.38 1015.30 1015.01 1014.75 1013.82
1000.82 1001.73 1002.57 1003.58 1004.43 1005.27 1006.06 1006.82 1007.77 1008.59 1009.25 1009.81 1010.51 1011.08 1011.60 1012.10 1012.25 1012.64 1013.06 1013.26 1013.50 1013.65 1013.95 1014.04 1014.11 1014.17 1014.25 1014.55 1014.71 1014.68 1014.78 1014.79 1014.75 1014.75 1014.98 1015.16 1015.00 1014.91 1015.00 1015.12 1015.10 1015.33 1014.07
1000.31 1001.05 1001.81 1002.67 1003.36 1004.00 1005.02 1006.07 1006.78 1007.35 1007.94 1008.75 1009.54 1010.03 1010.63 1011.27 1011.67 1012.13 1012.41 1012.66 1012.99 1013.32 1013.46 1013.55 1013.68 1013.75 1013.80 1013.99 1014.09 1014.17 1014.33 1014.42 1014.48 1014.55 1014.71 1014.72 1014.63 1014.67 1014.60 1014.50 1014.75 1014.92 1014.80
1000.02 1000.32 1000.77 1001.64 1002.35 1003.06 1004.06 1004.78 1005.80 1006.50 1007.29 1007.85 1008.42 1009.08 1009.64 1010.29 1010.89 1011.22 1011.68 1012.13 1012.42 1012.65 1012.88 1012.93 1013.06 1013.16 1013.17 1013.29 1013.44 1013.50 1013.72 1014.19 1014.33 1014.52 1014.53 1014.35 1014.38 1014.16 1014.30 1014.57 1014.45 1014.28 1014.26
999.28 999.80 1000.34 1000.98 1001.73 1002.40 1003.02 1003.96 1004.73 1005.57 1006.11 1006.72 1007.56 1008.16 1008.88 1009.52 1009.97 1010.42 1010.80 1011.20 1011.41 1011.77 1012.06 1012.23 1012.45 1012.65 1012.78 1013.07 1013.28 1013.21 1013.44 1013.77 1013.82 1014.07 1014.39 1014.34 1014.42 1014.40 1014.04 1013.66 1013.70 1013.73 1013.84
998.98 999.31 999.60 1000.28 1001.26 1001.76 1002.44 1003.13 1003.98 1004.38 1004.94 1006.01 1006.68 1007.36 1007.97 1008.61 1008.95 1009.30 1009.72 1010.28 1010.73 1010.94 1011.31 1011.82 1011.99 1012.17 1012.39 1012.59 1012.51 1013.03 1013.34 1013.23 1013.43 1013.79 1014.00 1014.11 1014.35 1014.24 1014.06 1013.97 1013.66 1013.83 1013.50
999.17 999.00 999.25 999.41 1000.35 1001.05 1001.61 1002.34 1002.94 1003.46 1004.13 1005.02 1005.70 1006.31 1006.90 1007.15 1007.64 1008.24 1008.88 1009.33 1010.00 1010.50 1010.85 1011.03 1011.14 1011.25 1011.43 1011.54 1011.75 1011.30 1012.17 1012.86 1013.26 1013.73 1014.09 1013.98 1014.06 1014.10 1014.04 1013.89 1013.68 1013.48 1013.23
999.66 999.52 999.57 999.33 999.83 1000.48 1001.17 1001.74 1002.14 1002.80 1003.46 1004.09 1004.72 1005.31 1005.75 1006.25 1006.85 1007.48 1008.04 1008.81 1009.46 1009.89 1010.33 1010.50 1010.78 1011.02 1011.22 1011.38 1011.54 1011.51 1011.59 1012.06 1012.14 1013.35 1013.65 1013.75 1013.82 1013.96 1013.87 1013.71 1013.48 1013.43 1013.16
1000.48 1000.12 999.93 999.94 999.79 999.84 999.96 1000.65 1001.33 1001.97 1002.66 1003.34 1003.96 1004.58 1005.15 1005.66 1006.15 1006.76 1007.67 1008.48 1009.08 1009.39 1009.66 1010.36 1010.83 1011.18 1011.24 1011.24 1011.38 1010.67 1011.11 1011.43 1011.95 1012.55 1012.98 1013.23 1013.27 1013.28 1013.54 1013.71 1013.71 1013.56 1013.26
1000.84 1000.60 1000.15 999.50 999.07 999.11 999.52 999.90 1000.29 1001.02 1001.89 1002.55 1003.31 1003.98 1004.50 1004.99 1005.62 1006.50 1007.36 1008.05 1008.48 1008.83 1009.40 1009.74 1009.78 1010.23 1010.99 1011.48 1011.61 1011.27 1011.06 1011.55 1011.89 1011.96 1012.46 1012.67 1012.42 1012.77 1012.97 1013.31 1013.38 1013.25 1012.91
1000.79 1000.17 999.60 999.17 998.72 998.07 998.12 998.97 999.79 1000.65 1001.02 1001.78 1002.33 1002.88 1003.59 1004.33 1005.53 1006.51 1007.06 1007.59 1008.00 1008.59 1008.65 1009.46 1010.53 1011.06 1011.59 1011.94 1011.77 1011.49 1011.16 1011.60 1011.89 1011.77 1012.38 1012.58 1012.27 1012.25 1012.64 1012.82 1012.71 1012.51 1012.24
1000.26 999.90 999.28 998.32 997.75 997.46 997.42 998.13 998.82 999.84 1000.16 1000.29 1001.34 1002.11 1002.67 1004.18 1005.36 1006.45 1006.87 1007.13 1007.62 1008.07 1009.28 1009.47 1010.07 1011.01 1011.65 1012.05 1011.97 1011.63 1011.46 1011.64 1011.82 1011.97 1012.21 1012.38 1012.19 1012.31 1012.66 1012.43 1012.10 1011.89 1011.48
1000.19 998.97 998.17 997.24 996.76 996.48 996.93 997.45 997.70 998.17 999.25 1000.02 1000.45 1002.23 1003.43 1004.50 1005.57 1006.71 1007.98 1008.29 1009.01 1008.27 1009.21 1010.11 1010.01 1010.48 1010.94 1012.22 1012.20 1011.96 1011.37 1011.61 1011.74 1012.14 1012.18 1012.54 1012.67 1012.88 1012.74 1012.49 1012.23 1011.77 1011.23
999.76 998.99 997.90 996.91 996.08 995.92 996.43 996.82 997.05 997.21 998.10 1000.15 1001.05 1002.16 1003.25 1004.33 1005.58 1006.60 1008.91 1010.06 1010.59 1008.63 1009.99 1010.26 1010.17 1010.91 1011.43 1012.47 1012.63 1012.47 1012.07 1011.83 1011.80 1011.69 1011.61 1012.09 1012.91 1012.99 1012.78 1012.65 1012.34 1011.80 1011.59
998.98 998.31 997.56 996.57 995.81 995.88 996.16 996.45 997.17 997.97 998.65 999.72 1001.20 1001.46 1001.73 1004.19 1004.77 1004.15 1006.40 1007.52 1009.09 1011.02 1010.36 1010.75 1010.89 1011.42 1012.14 1012.81 1013.17 1013.04 1013.02 1012.89 1012.31 1012.15 1012.17 1012.62 1013.02 1012.93 1012.60 1012.38 1012.35 1012.01 1011.52
999.35 998.47 997.84 996.89 996.65 996.51 996.60 997.21 998.02 998.55 999.08 999.99 1001.46 1002.17 1003.47 1004.45 1005.82 1005.44 1006.64 1007.64 1009.20 1009.90 1010.26 1010.42 1011.08 1011.80 1012.42 1013.20 1013.80 1013.67 1013.77 1013.82 1013.24 1013.34 1013.42 1013.36 1012.81 1012.58 1011.96 1012.14 1012.08 1011.46 1010.51
999.07 998.56 998.11 997.83 997.73 997.40 997.38 998.23 998.75 999.16 999.66 1000.29 1001.74 1002.82 1003.89 1005.34 1006.24 1006.54 1006.94 1008.15 1009.34 1009.73 1010.32 1010.81 1011.61 1012.32 1012.77 1013.17 1013.50 1013.61 1013.52 1013.51 1013.28 1013.43 1013.02 1013.29 1012.77 1012.18 1012.10 1011.89 1011.58 1011.23 1010.93
999.17 998.72 998.68 998.86 998.71 998.43 998.43 999.03 999.33 999.97 1000.60 1000.91 1002.47 1003.85 1004.78 1005.93 1007.08 1008.10 1008.58 1009.51 1010.60 1010.51 1010.99 1011.88 1012.23 1012.57 1013.17 1014.21 1014.63 1014.38 1013.88 1013.91 1014.04 1013.40 1012.92 1012.54 1012.56 1012.25 1011.99 1011.97 1011.86 1011.55 1011.21
999.60 999.43 999.39 999.53 999.66 999.61 999.68 999.86 999.88 1000.60 1001.41 1002.68 1004.15 1005.09 1005.48 1006.32 1007.19 1008.29 1010.17 1011.39 1011.60 1011.95 1012.49 1013.10 1013.05 1013.89 1014.23 1014.79 1014.83 1014.71 1014.70 1014.69 1014.22 1013.46 1013.02 1012.91 1013.11 1013.17 1012.72 1012.43 1012.12 1011.73 1011.45
Thickness
5826 5823 5822 5822 5819 5816 5812 5810 5806 5803 5799 5794 5792 5791 5791 5792 5792 5791 5789 5788 5787 5786 5783 5784 5783 5785 5786 5783 5781 5779 5775 5775 5773 5771 5777 5779 5780 5776 5773 5774 5771 5768 5764
5825 5823 5824 5823 5822 5820 5817 5813 5810 5806 5803 5800 5797 5796 5795 5795 5795 5794 5792 5791 5790 5789 5788 5788 5789 5790 5787 5784 5782 5777 5775 5773 5774 5770 5768 5764 5768 5770 5776 5776 5774 5771 5769
5828 5828 5824 5825 5825 5822 5819 5817 5814 5811 5807 5804 5799 5797 5795 5794 5794 5794 5795 5795 5792 5791 5790 5791 5791 5790 5787 5786 5782 5780 5775 5770 5773 5771 5764 5759 5750 5754 5766 5772 5774 5772 5773
5838 5836 5833 5829 5829 5829 5827 5824 5820 5815 5812 5807 5803 5799 5798 5794 5797 5797 5798 5797 5794 5793 5791 5791 5790 5790 5789 5786 5784 5782 5776 5773 5770 5773 5768 5762 5750 5744 5752 5769 5771 5772 5773
5850 5845 5842 5841 5841 5837 5832 5828 5822 5817 5815 5811 5810 5805 5801 5801 5801 5799 5797 5796 5796 5795 5794 5793 5792 5792 5791 5789 5785 5783 5779 5778 5775 5771 5771 5764 5759 5751 5746 5755 5763 5770 5775
5860 5856 5854 5851 5845 5843 5839 5834 5825 5821 5818 5816 5813 5810 5808 5805 5801 5801 5799 5799 5799 5798 5797 5796 5795 5796 5795 5793 5790 5787 5784 5782 5779 5776 5772 5768 5762 5761 5755 5755 5761 5760 5770
5867 5861 5857 5853 5851 5847 5844 5840 5833 5827 5825 5822 5820 5818 5816 5812 5808 5804 5802 5802 5801 5800 5800 5799 5797 5797 5795 5793 5791 5788 5786 5784 5783 5780 5776 5774 5770 5767 5763 5756 5758 5753 5768
5878 5872 5869 5865 5860 5855 5851 5847 5841 5836 5832 5828 5827 5825 5823 5819 5814 5810 5809 5807 5806 5806 5804 5802 5802 5800 5797 5794 5792 5790 5789 5788 5786 5783 5779 5777 5775 5771 5767 5762 5759 5752 5760
5887 5882 5879 5875 5870 5864 5860 5857 5849 5843 5839 5836 5832 5829 5827 5823 5821 5817 5814 5811 5809 5808 5805 5804 5803 5801 5799 5795 5793 5793 5790 5789 5787 5785 5780 5775 5775 5774 5771 5767 5762 5752 5753
5889 5887 5885 5881 5881 5878 5872 5865 5860 5854 5851 5845 5840 5837 5834 5829 5826 5822 5818 5816 5813 5810 5809 5808 5806 5805 5804 5802 5799 5796 5793 5790 5788 5785 5781 5778 5776 5773 5771 5769 5764 5759 5754
5888 5891 5892 5891 5889 5886 5879 5874 5866 5861 5855 5852 5848 5844 5840 5836 5831 5828 5823 5819 5817 5815 5813 5814 5813 5811 5811 5809 5805 5802 5797 5789 5786 5782 5780 5778 5777 5775 5770 5764 5762 5759 5756
5896 5894 5893 5893 5889 5887 5885 5877 5873 5867 5865 5861 5854 5849 5845 5840 5835 5831 5828 5826 5824 5822 5819 5819 5816 5813 5811 5807 5801 5800 5796 5789 5784 5780 5775 5772 5771 5767 5768 5768 5763 5761 5758
5896 5897 5899 5894 5889 5888 5885 5881 5877 5875 5873 5864 5858 5853 5848 5843 5840 5838 5836 5832 5828 5826 5823 5818 5815 5812 5809 5806 5804 5794 5785 5784 5782 5777 5772 5769 5764 5760 5760 5759 5759 5755 5754
5890 5896 5899 5902 5895 5892 5890 5886 5883 5882 5878 5870 5864 5858 5853 5852 5848 5845 5840 5837 5831 5826 5822 5820 5818 5816 5813 5810 5805 5804 5793 5782 5776 5769 5764 5763 5759 5753 5751 5750 5749 5748 5748
5883 5887 5890 5898 5896 5893 5891 5888 5888 5885 5881 5875 5870 5865 5862 5858 5854 5848 5844 5837 5830 5825 5821 5820 5814 5809 5807 5802 5795 5788 5786 5781 5778 5764 5759 5755 5751 5746 5743 5741 5741 5738 5736
5871 5879 5885 5886 5890 5895 5897 5895 5891 5888 5885 5878 5873 5870 5864 5860 5855 5850 5841 5834 5827 5824 5820 5812 5805 5799 5797 5792 5784 5786 5781 5775 5768 5757 5751 5746 5742 5740 5734 5729 5728 5726 5723
5863 5869 5876 5887 5895 5897 5896 5895 5896 5894 5886 5879 5874 5869 5865 5861 5855 5847 5838 5830 5824 5822 5815 5811 5810 5802 5792 5781 5774 5770 5768 5755 5750 5751 5745 5739 5739 5732 5728 5721 5715 5711 5709
5855 5866 5877 5885 5894 5904 5905 5900 5895 5889 5887 5880 5877 5874 5868 5861 5850 5840 5833 5826 5822 5813 5813 5806 5794 5785 5779 5770 5766 5763 5760 5748 5743 5742 5733 5728 5729 5727 5720 5713 5707 5702 5700
5854 5863 5875 5887 5897 5902 5906 5901 5894 5886 5883 5885 5879 5875 5870 5856 5844 5832 5827 5822 5815 5809 5796 5796 5788 5777 5771 5761 5755 5756 5753 5743 5737 5731 5726 5721 5720 5715 5708 5705 5698 5694 5690
5847 5861 5874 5888 5897 5903 5903 5899 5897 5894 5884 5881 5880 5866 5855 5844 5833 5821 5805 5802 5789 5791 5782 5776 5779 5772 5767 5747 5744 5744 5744 5734 5729 5723 5719 5711 5706 5698 5694 5692 5685 5681 5680
5838 5853 5868 5878 5890 5898 5898 5894 5896 5895 5892 5874 5866 5858 5847 5835 5821 5807 5788 5769 5761 5764 5766 5767 5769 5761 5753 5738 5731 5727 5728 5723 5717 5714 5711 5703 5688 5682 5677 5672 5671 5670 5667
5832 5846 5857 5870 5883 5887 5888 5887 5883 5882 5878 5871 5857 5855 5849 5828 5822 5826 5801 5790 5766 5751 5758 5754 5751 5745 5733 5723 5715 5711 5706 5702 5701 5697 5692 5683 5673 5667 5664 5661 5653 5652 5651
5818 5835 5845 5858 5866 5872 5875 5870 5867 5869 5866 5859 5845 5838 5826 5818 5807 5807 5794 5786 5767 5757 5752 5748 5738 5727 5719 5709 5697 5693 5686 5680 5680 5673 5666 5660 5660 5657 5657 5648 5643 5643 5645
5808 5822 5832 5839 5844 5855 5858 5854 5853 5852 5850 5844 5833 5825 5816 5804 5796 5795 5789 5773 5757 5750 5740 5733 5723 5713 5705 5696 5689 5683 5678 5671 5666 5658 5657 5648 5647 5647 5642 5639 5635 5632 5627
5797 5807 5814 5819 5826 5834 5837 5837 5838 5835 5829 5830 5819 5807 5799 5787 5776 5767 5761 5750 5737 5735 5728 5716 5709 5702 5691 5676 5666 5663 5662 5654 5646 5644 5644 5642 5635 5632 5629 5624 5619 5616 5611
5781 5788 5796 5802 5808 5812 5817 5821 5825 5820 5811 5803 5794 5785 5782 5775 5766 5756 5739 5722 5715 5709 5701 5691 5689 5676 5667 5657 5651 5645 5639 5634 5631 5635 5631 5626 5617 5611 5609 5606 5604 5602 5598